Showing default

IRNSS 1I, 43286

Orbit data source: Space-Track

IRNSS 1I, 43286 is a payload satellite owned by ISRO (IN) in GEO that was launched on Wed, 11 Apr 2018 UTC via a PSLV-XL launch vehicle from the Sirharikota (SRI). Payload-class satellites include a variety of spacecraft equipped with specific instruments for various scientific and technological missions. These include communications satellites like Starlink; space stations such as the ISS; scientific satellites like the Hubble; Earth observation satellites from companies like Planet Labs, Umbra, and HawkEye 360; GPS; miniature CubeSats for education and research; and military/defense satellites.

Not visible in the next 10 days
Identifier
43286, 2018-035A
Orbit
GEO
Country
Flag of ININ / IND
Related business
Manufacturer
ISRO SAC/Banga
Mission
Operational Civil Navigation
Bus & Motor
I1K, ISRO LAM
Mass
1,425 kg wet, 598 kg dry
Launch date (UTC)
2018-04-11 (7 years ago)
Launch vehicle
PSLV-XL
Launch site
Sirharikota (SRI)
Object type
Payload
Rocket body
Debris
Shape & HBR
Box + 2 Pan, 5.0 m
Radar Cross Section
6.961 m², Large (>1 m²)

Expand to show TLE details & history
Last TLE update: 22 hours ago

TLE from 22 hours ago
0 IRNSS 1I
1 43286U 18035A   25260.09404473  .00000078  00000-0  00000-0 0  9991
2 43286  28.9441  78.4427 0020618 177.9325 188.8123  1.00273485 27343
Epoch: 2025-09-17T02:15Z
TLE epoch observation values (Epoch: 2025-09-17T02:15:25.464Z)
Latitude
3.20621°
Longitude
54.15464°
Altitude
35,871.061 km
Speed
3.069 km/s
True Right ascension
05h 37m 08s
True Declination
3° 12' 11"
Sunlit
Object was in daylight at epoch
Visualization orbit readout
Latitude
Unknown
Longitude
Unknown
Altitude
Unknown
Speed
Unknown
Apparent Right ascension
Unknown
Apparent Declination
Unknown
Sunlit
N/A
Visualization observer readout
Local Sidereal Time
16:37:03
Azimuth
Unknown
Elevation
Unknown
Doppler factor
Unknown
Orbital elements
Apogee altitude
35,873.758 km
Perigee altitude
35,699.886 km
Semi-major axis
42,164.959 km
Eccentricity
0.00206
Inclination
28.9441°
RAAN
78.4427°
Arg. of periapsis
177.9325°
True anomaly
188.7762°
Mean anomaly
188.8123°
Eccentric anomaly
188.79424°
Mean motion
0.25068 °/min
Orbital period
1,436.11 mins
BSTAR
0
Loading maneuver chart data...
Computing Atmospheric mass density...
Loading historical data...
Loading historical data...
Loading historical data...
Loading historical data...
Loading historical data...
Loading historical data...
Loading historical data...
Other satellites on launch #35 in the year 2018 (2018-04-11 UTC)

Documentation

Showing up to 5 results
|